Cadjehoun Airport

Jump to: basic info | weather | frequencies | runways | comments

Related pages: nearby airports | nearby navaids | notams | map

Basic information (top)

Codes: COO DBBB
Location: lon 6.357230, lat 2.384350, elev 19 ft / 6 m msl
Status: medium_airport
Scheduled airline service: yes
Links: Wikipedia Mobile

Weather (top)

Current conditions (rec'd 2014/10/02 00:00Z):

DBBB 020000Z 24006KT 9999 SCT012 25/25 Q1013 NOSIG

Airport forecast (rec'd 2014/10/01 18:00Z):

TAF DBBB 011700Z 0118/0224 22012KT 9999 SCT012 
      TEMPO 0118/0123 BKN010 FEW023CB PROB30 4000 TSRA 
      TEMPO 0203/0208 BKN008 
      BECMG 0212/0214 SCT012 FEW023CB 
      BECMG 0218/0220 SCT012

Frequencies (top)

Verify before use: may be inaccurate or out of date.

A/G: 658.6 MHz (A/G VOICE RDO)
APP: 125.9 MHz (APP)
TWR: 125.9 MHz (TWR)

Runways (top)

06/24: 7,874 x 148 ft (2,400 x 45 m) — paved — lighted — threshold 06 displaced 125 ft (38 m)

Latest comments (top)

No comments yet for Cadjehoun Airport

More... (top)

See also NOTAMs and nearby airports and navaids, or visit the Cadjehoun Airport page at the main OurAirports website..